Location: B�retswil
(47.3376°N, 8.8534°E)
Time: 00:24:50
(UTC+00:00)

SeaSat 1 - Pass Details

Date: 03 March 2021
Orbit: 744 x 747 km, 108.0° (Epoch: 14 April)

Event Time Altitude Azimuth Distance (km) Brightness Sun altitude
Rises 19:33:13 0° 23° (NNE) 3,202 5.7 -24.3°
Reaches altitude 10° 19:35:36 10° 16° (NNE) 2,274 5.0 -24.7°
Maximum altitude 19:40:10 39° 309° (NW) 1,120 3.8 -25.4°
Drops below altitude 10° 19:44:43 10° 241° (WSW) 2,263 5.4 -26.2°
Sets 19:47:05 0° 234° (SW) 3,184 6.1 -26.5°
